Home   Weather   Hereford   Past weeks

Flag for USA Past Weather in Hereford, Texas, USA — Yesterday and Last 2 Weeks

Now
64 °F

Sunny.


Feels Like: 64 °F
Forecast: 35 / 71 °F
Wind: 16 mph from Southwest

Location: Clovis Municipal

Current Time: Apr 23, 2017 at 2:56:40 pm

Latest Report: Apr 23, 2017 at 1:55 pm


Visibility: 10 mi

Pressure: 30.14 "Hg (26.28 "Hg at 1167m altitude)

Humidity: 34%

Dew Point: 36 °F

Location of HerefordLocation

Past Weather in Hereford — Graph

°F

Hereford Temperature Yesterday

Maximum temperature yesterday: 63 °F (at 3:35 pm)
Minimum temperature yesterday: 43 °F (at 5:15 am)
Average temperature yesterday: 50 °F

High & Low Weather Summary for the Past Weeks

 TemperatureHumidityPressure
High88 °F (Apr 19, 3:55 pm)93% (Apr 13, 7:55 am)30.31 "Hg (Apr 13, 7:55 am)
Low34 °F (Apr 23, 5:55 am)10% (Apr 8, 3:35 pm)29.76 "Hg (Apr 9, 3:15 am)
Average61 °F51%30.05 "Hg
* Reported Apr 8 1:15 pm — Apr 23 1:35 pm, Hereford, Weather by CustomWeather, © 2017

Note: Actual official high and low records may vary slightly from our data, if they occured in-between our weather recording intervals... More about our weather records

Advertising

Hereford Weather History for the Previous 24 Hours

Scroll right to see more
 ConditionsComfort  
Time TempWeatherWind HumidityBarometerVisibility
1:35 pm
Sun, Apr 23
64 °FSunny.13 mph34%30.15 "Hg10 mi
1:15 pm64 °FSunny.17 mph32%30.17 "Hg10 mi
12:55 pm63 °FSunny.18 mph34%30.18 "Hg10 mi
12:35 pm61 °FSunny.16 mph36%30.19 "Hg10 mi
12:15 pm59 °FSunny.16 mph39%30.21 "Hg10 mi
11:55 am59 °FSunny.16 mph39%30.22 "Hg10 mi
11:35 am57 °FSunny.13 mph39%30.23 "Hg10 mi
11:15 am55 °FSunny.13 mph41%30.24 "Hg10 mi
10:55 am55 °FSunny.12 mph38%30.24 "Hg10 mi
10:35 am54 °FSunny.10 mph41%30.25 "Hg10 mi
10:15 am52 °FSunny.15 mph44%30.25 "Hg10 mi
9:55 am50 °FSunny.14 mph47%30.26 "Hg10 mi
9:35 am48 °FSunny.13 mph50%30.27 "Hg10 mi
9:15 am46 °FSunny.12 mph53%30.26 "Hg10 mi
8:55 am46 °FSunny.9 mph53%30.27 "Hg10 mi
8:15 am41 °FSunny.3 mph70%30.26 "Hg10 mi
7:55 am37 °FSunny.5 mph70%30.26 "Hg10 mi
7:35 am36 °FSunny.3 mph70%30.26 "Hg10 mi
7:15 am36 °FSunny.6 mph70%30.26 "Hg10 mi
6:55 am36 °FClear.5 mph70%30.26 "Hg10 mi
6:35 am36 °FClear.6 mph70%30.26 "Hg10 mi
6:15 am36 °FClear.6 mph70%30.26 "Hg10 mi
5:55 am34 °FClear.6 mph70%30.26 "Hg10 mi
5:35 am37 °FClear.No wind65%30.27 "Hg10 mi
5:15 am36 °FClear.No wind70%30.26 "Hg10 mi
4:55 am37 °FClear.3 mph65%30.26 "Hg10 mi
4:35 am37 °FClear.5 mph65%30.27 "Hg10 mi
4:15 am37 °FClear.7 mph65%30.27 "Hg10 mi
3:55 am37 °FClear.5 mph65%30.27 "Hg10 mi
3:35 am39 °FClear.3 mph61%30.28 "Hg10 mi
3:15 am39 °FClear.No wind65%30.29 "Hg10 mi
2:55 am37 °FClear.No wind65%30.29 "Hg10 mi
2:15 am39 °FClear.No wind65%30.30 "Hg10 mi
1:55 am41 °FClear.No wind61%30.30 "Hg10 mi
1:35 am41 °FClear.No wind61%30.31 "Hg10 mi
1:15 am41 °FClear.No wind61%30.31 "Hg10 mi
12:55 am43 °FClear.3 mph57%30.31 "Hg10 mi
12:35 am43 °FClear.No wind61%30.31 "Hg10 mi
12:15 am43 °FClear.No wind57%30.31 "Hg10 mi
11:55 pm
Sat, Apr 22
43 °FClear.3 mph57%30.31 "Hg10 mi
11:35 pm45 °FPassing clouds.6 mph53%30.30 "Hg10 mi
11:15 pm45 °FOvercast.7 mph57%30.30 "Hg10 mi
10:55 pm45 °FOvercast.8 mph57%30.29 "Hg10 mi
10:35 pm45 °FPassing clouds.6 mph53%30.29 "Hg10 mi
10:15 pm46 °FPassing clouds.6 mph50%30.28 "Hg10 mi
9:55 pm46 °FClear.6 mph50%30.27 "Hg10 mi
9:35 pm46 °FClear.9 mph50%30.27 "Hg10 mi
8:55 pm48 °FClear.7 mph50%30.26 "Hg10 mi
8:35 pm52 °FPassing clouds.9 mph44%30.25 "Hg10 mi
8:15 pm54 °FSunny.12 mph41%30.25 "Hg10 mi
7:55 pm55 °FSunny.15 mph38%30.24 "Hg10 mi
7:35 pm57 °FSunny.14 mph36%30.24 "Hg10 mi
7:15 pm57 °FSunny.13 mph36%30.24 "Hg10 mi
6:55 pm57 °FPassing clouds.15 mph33%30.24 "Hg10 mi
6:35 pm57 °FScattered clouds.12 mph36%30.23 "Hg10 mi
6:15 pm59 °FPartly sunny.16 mph34%30.22 "Hg10 mi
5:55 pm63 °FOvercast.14 mph32%30.22 "Hg10 mi
5:35 pm61 °FOvercast.14 mph31%30.21 "Hg10 mi
5:15 pm63 °FOvercast.17 mph30%30.22 "Hg10 mi
4:55 pm61 °FPartly sunny.13 mph31%30.21 "Hg10 mi
4:35 pm63 °FPartly sunny.10 mph32%30.21 "Hg10 mi
4:15 pm63 °FOvercast.13 mph34%30.21 "Hg10 mi
3:55 pm61 °FPartly sunny.12 mph34%30.21 "Hg10 mi
3:35 pm63 °FOvercast.13 mph34%30.22 "Hg10 mi
3:15 pm61 °FPartly sunny.20 mph34%30.22 "Hg10 mi
2:55 pm61 °FPartly sunny.20 mph36%30.22 "Hg10 mi
2:35 pm59 °FPartly sunny.15 mph36%30.22 "Hg10 mi
2:15 pm59 °FOvercast.17 mph39%30.23 "Hg10 mi
Weather by CustomWeather, © 2017

See weather overviewHow to use our weather pages